SCP
0 0 0 0 0 0 0 0 0 0 0 0 0 0 0 0 0 0 0 0 0 0 0 0 0 0 0 0 0 0 0 0 0 0 0 0 0 0 0 1 1 1 0 0
0 0 0 0 0 0 0 0 0 0 0 0 0 0 0 0 0 0 0 0 0 0 0 0 0 0 0 0 0 0 0 0 0 0 0 0 0 0 0 0 1 1 0 0
0 0 0 0 0 0 0 0 0 0 0 0 0 0 0 0 0 0 0 0 0 0 0 0 0 0 0 0 0 0 0 0 0 0 0 0 0 0 0 0 0 0 0 0
0 0 0 0 0 0 0 0 0 0 0 0 0 0 0 0 0 0 0 0 0 0 0 0 0 0 0 0 0 0 0 0 0 0 0 0 0 0 0 0 0 0 0 0
0 0 0 0 0 0 0 0 0 0 0 0 0 0 0 0 0 0 0 0 0 0 0 0 0 0 0 0 0 0 0 0 0 0 0 0 0 0 0 0 0 0 0 0
0 0 0 0 0 0 0 0 0 0 0 0 0 0 0 0 0 0 0 0 0 0 0 0 0 0 0 0 0 0 0 0 0 0 0 0 0 0 0 0 0 0 0 0
0 0 0 0 0 0 0 0 0 0 0 0 0 0 0 0 0 0 0 0 0 0 0 0 0 0 0 0 0 0 0 0 0 0 0 0 0 0 0 0 0 0 0 0
0 0 0 0 0 0 0 0 0 0 0 0 0 0 0 0 0 0 0 0 0 0 0 0 0 0 0 0 0 0 0 0 0 0 0 0 0 0 0 0 0 0 0 0
0 0 0 0 0 0 0 0 0 0 0 0 0 0 0 0 0 0 0 0 0 0 0 0 0 0 0 0 0 0 0 0 0 0 0 0 0 0 0 0 0 0 0 0
0 0 0 0 0 0 0 0 0 0 0 0 0 0 0 0 0 0 0 0 0 0 0 0 0 0 0 0 0 0 0 0 0 0 0 0 0 0 0 0 0 0 0 0
0 0 0 0 0 0 0 0 0 0 0 0 0 0 0 0 0 0 0 0 0 0 0 0 0 0 0 0 0 0 0 0 0 0 0 0 0 0 0 0 0 0 0 0
0 0 0 0 0 0 0 0 0 0 0 0 0 0 0 0 0 0 0 0 0 0 0 0 0 0 0 0 0 0 0 0 0 0 0 0 0 0 0 0 0 0 0 0
0 0 0 0 0 0 0 0 0 0 0 0 0 0 0 0 0 0 0 0 0 0 0 0 0 0 0 0 0 0 0 0 0 0 0 0 0 0 0 0 0 0 0 0
0 0 0 0 0 0 0 0 0 0 0 0 0 0 0 0 0 0 0 0 0 0 0 0 0 0 0 0 0 0 0 0 0 0 0 0 0 0 0 0 0 0 0 0
0 0 0 0 0 0 0 0 0 0 0 0 0 0 0 0 0 0 0 0 0 0 0 0 0 0 0 0 0 0 0 0 0 0 0 0 0 0 0 0 0 0 0 0
0 0 0 0 0 0 0 0 0 0 0 0 0 0 0 0 0 0 0 0 0 0 0 0 0 0 0 0 0 0 0 0 0 0 0 0 0 0 0 0 0 0 0 0
0 0 0 0 0 0 0 0 0 0 0 0 0 0 0 0 0 0 0 0 0 0 0 0 0 0 0 0 0 0 0 0 0 0 0 0 0 0 0 0 0 0 0 0
0 0 0 0 0 0 0 0 0 0 0 0 0 0 0 0 0 0 0 0 0 0 0 0 0 0 0 0 0 0 0 0 0 0 0 0 0 0 0 0 0 0 0 0
0 0 0 0 0 0 0 0 0 0 0 0 0 0 0 0 0 0 0 0 0 0 0 0 0 0 0 0 0 0 0 0 0 0 0 0 0 0 0 0 0 0 0 0
0 0 0 0 0 0 0 0 0 0 0 0 0 0 0 0 0 0 0 0 0 0 0 0 0 0 0 0 0 0 0 0 0 0 0 0 0 0 0 0 0 0 0 0
0 0 0 0 0 0 0 0 0 0 0 0 0 0 0 0 0 0 0 0 0 0 0 0 0 0 0 0 0 0 0 0 0 0 0 0 0 0 0 0 0 0 0 0
0 0 0 0 0 0 0 0 0 0 0 0 0 0 0 0 0 0 0 0 0 0 0 0 0 0 0 0 0 0 0 0 0 0 0 0 0 0 0 0 0 0 0 0
0 0 0 0 0 0 0 0 0 0 0 0 0 0 0 0 0 0 0 0 0 0 0 0 0 0 0 0 0 0 0 0 0 0 0 0 0 0 0 0 0 0 0 0
0 0 0 0 0 0 0 0 0 0 0 0 0 0 0 0 0 0 0 0 0 0 0 0 0 0 0 0 0 0 0 0 0 0 0 0 0 0 0 0 0 0 0 0
0 0 0 0 0 0 0 0 0 0 0 0 0 0 0 0 0 0 0 0 0 0 0 0 0 0 0 0 0 0 0 0 0 0 0 0 0 0 0 0 0 0 0 0
0 0 0 0 0 0 0 0 0 0 0 0 0 0 0 0 0 0 0 0 0 0 0 0 0 0 0 0 0 0 0 0 0 0 0 0 0 0 0 0 0 0 0 0
0 0 0 0 0 0 0 0 0 0 0 0 0 0 0 0 0 0 0 0 0 0 0 0 0 0 0 0 0 0 0 0 0 0 0 0 0 0 0 0 0 0 0 0
Wind_Speed
10 9 7 6 7 7 7 9 10 10 4 5 5 7 9 10 11 12 11 11 12 12 12 12 12 12 12 13 12 12 12 12 12 12 12 12 12 12 12 11 11 11 11 11
10 6 4 1 5 6 5 7 8 6 2 4 6 8 10 11 12 12 12 13 14 14 14 14 14 14 14 14 14 13 14 14 13 12 13 12 13 12 12 11 11 10 11 11
8 1 7 2 7 8 5 6 8 8 5 8 11 12 13 13 13 13 14 16 17 17 16 16 16 16 16 16 15 15 15 15 14 14 14 13 13 13 13 12 11 10 11 12
8 7 7 8 7 7 6 5 4 4 7 10 12 14 15 15 13 14 17 19 19 18 18 18 18 17 17 17 17 17 16 16 15 15 15 14 14 14 13 11 10 9 10 11
7 9 3 6 6 8 9 8 3 6 11 14 15 18 16 10 13 18 20 19 19 19 20 19 19 18 18 18 18 18 17 17 16 16 16 16 15 14 13 12 11 10 9 10
7 10 6 6 7 8 9 6 3 11 16 18 19 17 14 17 20 21 20 19 19 20 21 20 19 18 19 19 19 18 18 17 17 16 17 17 16 15 13 11 11 10 9 9
8 7 5 5 9 10 9 9 13 16 17 18 19 18 20 22 21 21 21 21 21 21 19 19 19 19 19 19 19 19 18 18 17 17 17 17 16 14 13 12 11 11 9 8
7 6 4 7 9 8 10 13 15 17 18 20 21 22 22 22 22 22 22 22 22 20 19 18 19 19 20 20 19 19 18 18 17 17 16 15 15 14 13 12 12 11 9 8
5 5 5 6 8 9 11 15 17 18 20 21 23 23 24 23 23 23 23 22 21 21 21 19 19 19 20 19 19 18 18 18 17 17 16 15 15 15 13 11 10 9 7 6
4 3 6 9 9 10 13 16 19 20 21 22 24 24 25 23 22 22 23 22 20 21 21 20 19 19 19 19 18 18 18 17 16 16 15 15 12 12 11 10 10 8 7 6
6 6 9 7 11 15 17 18 20 21 22 23 24 25 25 23 23 22 21 21 20 20 21 22 20 19 19 18 17 18 18 16 15 14 14 13 12 11 12 11 10 9 7 6
6 8 11 14 15 18 19 19 21 22 23 23 23 25 25 23 22 22 22 22 21 21 22 22 20 20 19 17 16 17 15 15 12 11 10 10 11 11 11 13 11 11 11 10
7 11 13 16 17 18 19 21 22 23 24 24 23 23 24 23 22 23 23 23 22 22 22 21 21 21 19 17 15 16 15 13 11 11 10 10 10 10 10 10 11 12 13 13
9 11 15 16 18 19 20 22 22 23 23 23 23 23 23 24 23 24 24 23 23 22 21 21 20 20 18 16 15 14 14 13 12 10 10 10 10 10 9 9 8 6 8 11
10 12 15 17 18 20 21 22 23 23 23 23 23 23 24 24 24 24 23 22 21 21 21 20 20 19 16 15 14 14 12 10 9 9 9 10 10 10 9 9 8 6 4 5
13 14 16 18 19 21 23 24 23 24 24 24 24 24 24 24 24 23 22 21 20 21 20 20 19 18 16 14 13 11 10 13 13 10 10 9 9 9 8 8 7 6 5 4
14 16 17 19 20 22 23 23 23 23 24 24 24 24 24 24 23 22 22 20 19 20 19 18 18 16 14 13 11 9 8 9 13 11 9 8 8 8 7 7 6 5 5 7
12 15 17 19 20 22 23 23 23 24 23 24 24 23 23 23 23 22 22 21 20 20 18 17 15 14 13 12 10 8 7 7 7 8 8 7 7 7 6 6 6 5 4 8
13 15 17 19 20 20 21 22 22 22 22 22 22 22 22 22 21 21 21 21 20 18 16 15 15 14 13 12 12 7 7 7 7 7 7 6 6 5 4 5 5 4 5 8
14 16 18 19 20 20 20 20 21 21 20 21 21 21 21 21 21 21 20 18 15 14 15 16 15 13 11 10 10 6 6 6 7 6 5 4 4 4 3 4 4 4 7 9
15 16 18 19 19 20 19 20 19 20 21 21 21 20 20 21 21 19 18 16 16 16 17 16 11 9 9 7 8 5 5 5 5 4 4 3 3 3 2 2 2 4 7 9
14 15 17 18 19 19 18 18 18 20 21 20 21 20 20 20 20 19 17 14 15 17 14 11 9 10 10 9 5 4 4 4 3 3 3 3 2 1 1 2 3 5 7 9
13 14 16 17 18 18 18 17 18 18 19 20 20 19 19 18 15 15 15 13 14 18 14 10 12 14 13 7 4 3 3 2 2 2 2 2 2 2 2 3 4 5 7 8
13 14 15 15 16 16 17 18 18 16 18 18 18 18 17 15 14 13 13 16 18 18 12 11 14 14 10 4 2 2 1 1 1 1 1 2 1 2 2 3 4 5 7 10
12 13 14 15 14 13 15 16 17 16 17 15 18 18 15 12 13 14 14 16 18 16 11 12 13 12 7 5 3 2 2 2 2 1 1 1 1 1 2 3 4 6 7 9
11 11 11 12 11 11 12 12 12 13 13 14 15 14 14 12 14 13 13 15 18 16 12 10 10 9 7 6 5 5 3 2 1 1 1 1 1 2 3 4 5 6 7 8
10 10 9 10 10 11 11 12 12 13 13 14 15 15 14 13 13 14 15 13 13 12 11 10 9 9 8 7 6 5 4 4 3 3 3 2 2 2 3 4 4 6 7 8
Wind_Direction
287 296 291 302 316 316 303 308 305 323 358 54 19 346 340 334 329 325 324 325 324 321 319 317 316 315 315 315 315 315 312 311 311 311 313 313 312 306 298 285 271 259 251 246
279 279 271 291 2 346 348 340 326 320 35 31 342 330 324 320 313 308 310 314 315 315 314 314 313 312 314 312 310 307 304 303 303 303 306 309 311 309 303 292 280 266 253 247
286 302 244 154 21 360 3 356 337 332 360 341 323 319 315 308 301 301 308 312 314 314 313 312 309 309 307 308 306 303 301 301 301 302 302 305 307 307 304 300 289 273 256 249
294 285 279 74 43 14 353 341 342 331 324 316 309 307 300 292 296 308 313 313 312 311 309 308 307 306 304 303 302 300 298 297 298 298 298 301 302 302 302 300 293 282 265 252
303 301 120 106 29 356 324 305 340 320 317 315 314 306 297 315 324 316 311 309 308 307 307 306 303 303 301 299 298 297 296 296 297 297 297 296 295 296 297 295 289 282 270 255
315 307 332 65 9 336 298 273 35 327 321 320 317 309 318 329 316 308 306 306 305 304 303 302 303 303 299 296 295 296 297 296 295 294 292 291 290 290 290 290 286 281 272 257
326 317 73 33 341 318 299 341 339 323 316 313 312 307 309 309 308 307 305 303 303 302 301 301 300 299 295 293 293 295 295 294 290 289 287 284 282 281 282 283 283 279 269 259
328 325 46 11 339 338 323 320 314 313 312 311 308 306 306 307 307 306 305 304 304 302 299 298 297 295 291 290 292 293 292 290 287 285 284 283 282 279 278 278 278 273 264 257
347 355 4 333 316 314 312 309 312 313 312 310 308 308 309 308 307 306 305 304 303 300 299 297 295 293 291 291 293 291 289 286 284 283 281 279 277 275 273 270 267 267 260 254
279 300 321 314 311 316 316 314 313 311 310 311 310 309 309 308 307 306 305 304 303 302 299 298 297 294 291 291 289 287 285 284 282 280 278 277 274 271 269 269 267 262 256 251
279 318 316 312 325 323 319 313 311 311 311 310 309 307 308 307 306 307 306 304 303 301 299 298 297 295 292 290 289 286 284 280 279 277 276 277 273 269 269 267 265 265 263 252
335 342 315 317 322 318 315 314 314 312 310 309 308 308 308 307 307 307 305 305 303 301 300 299 298 294 292 290 286 284 281 278 276 275 276 276 276 274 259 253 250 234 237 244
312 316 312 312 312 317 317 314 313 311 310 311 311 310 310 308 307 306 305 305 304 303 301 300 298 295 293 291 286 281 278 278 276 275 275 274 272 271 274 260 237 229 227 225
303 306 307 313 317 316 314 314 313 312 312 313 313 313 311 309 309 308 307 307 306 304 302 300 298 296 295 294 288 282 280 277 273 270 270 270 269 267 265 266 264 251 225 216
310 314 311 313 313 316 318 317 316 316 317 317 316 314 314 313 311 309 308 308 307 304 301 300 299 298 298 295 288 282 278 274 270 268 265 264 264 263 261 260 257 254 241 202
313 312 314 317 318 319 319 320 320 319 319 319 318 319 317 314 311 310 310 310 308 305 304 302 299 298 298 294 290 282 275 271 270 266 262 261 260 260 257 256 253 240 227 187
315 318 321 320 320 320 321 322 320 319 320 320 320 319 317 315 314 312 312 311 308 304 301 299 298 298 297 295 289 280 271 266 265 265 260 257 256 257 256 255 249 232 219 179
314 315 317 319 321 321 321 321 321 321 321 321 320 319 318 317 315 313 312 311 308 305 304 304 303 305 300 295 289 279 270 265 261 261 260 256 256 256 252 253 245 228 204 169
318 320 320 321 322 321 321 321 321 322 321 321 321 319 317 315 314 313 312 311 310 309 310 312 309 303 298 294 293 281 270 264 262 261 261 253 250 252 251 249 234 220 178 162
321 322 323 322 323 323 321 321 322 321 321 322 320 318 318 318 317 316 315 311 307 309 312 312 311 307 303 301 300 288 276 268 263 259 255 249 248 251 249 240 213 185 164 162
322 324 324 324 323 323 323 324 322 321 322 323 321 321 321 320 319 318 316 313 313 317 316 310 308 309 310 311 300 288 275 263 259 258 258 259 256 253 238 211 193 161 155 160
324 325 324 324 323 323 324 322 322 323 323 324 324 325 324 323 322 320 315 313 314 318 317 314 320 321 317 308 297 284 271 263 257 251 254 255 246 231 200 183 173 154 154 160
324 324 323 324 324 322 321 324 328 327 326 326 326 328 327 323 321 319 319 319 319 320 319 322 324 320 314 304 300 287 281 272 257 244 239 234 210 185 175 164 158 154 154 158
322 323 323 323 323 321 325 330 328 327 327 325 328 331 329 325 323 323 319 319 323 323 325 327 325 323 313 315 324 315 290 268 241 207 187 182 157 150 155 156 153 152 155 159
323 321 322 327 325 327 328 328 329 330 330 331 332 334 332 328 326 326 326 330 334 332 333 334 331 328 334 351 356 4 17 31 35 52 89 81 114 136 143 145 149 151 153 156
321 319 326 322 325 326 330 332 331 331 333 334 333 333 333 333 332 332 333 335 339 339 341 344 346 345 354 2 7 7 14 50 93 111 86 97 114 116 121 134 141 144 146 147
318 325 327 329 335 337 334 332 331 333 337 337 332 333 336 339 339 339 340 340 343 346 349 352 355 357 357 2 7 11 14 22 28 41 60 65 77 104 122 134 133 136 141 138